Regional Weather Roundup
Issued by NWS

Home | Current Version | Previous Version | Text Only | Print | Product List | Glossary Off
Versions: 1 2 3 4 5 6 7 8 9 10 11 12 13 14 15 16 17 18 19 20 21 22 23 24 25 26 27 28 29 30 31 32 33 34 35 36 37 38 39 40 41 42 43 44 45 46 47 48 49 50

000
ASUS43 KDMX 290201
RWRIA

WEATHER ROUNDUP FOR IOWA
NATIONAL WEATHER SERVICE DES MOINES IA
900 PM CDT SUN MAY 28 2017

NOTE: "FAIR" INDICATES FEW OR NO CLOUDS BELOW 12,000 FEET WITH NO
SIGNIFICANT WEATHER AND/OR OBSTRUCTIONS TO VISIBILITY.

* - THESE STATIONS ARE NOT NWS STATIONS...THUS NOT UNDER NWS
QUALITY CONTROL.  THEY ALSO DO NOT REPORT WEATHER SUCH
AS PRECIPITATION OR FOG.

IAZ001>003-012>014-020>022-031>034-043>046-290300-
   NORTHWEST IOWA

CITY           SKY/WX    TMP DP  RH WIND       PRES   REMARKS
CARROLL *      CLEAR     70  43  37 W9        29.86S
CHEROKEE *     CLOUDY    67  39  35 W5        29.84F
DENISON *      CLEAR     68  41  37 W3        29.89S
LE MARS *      MOCLDY    70  41  35 SW6       29.85F
ORANGE CITY *  CLOUDY    64  46  52 N18G26    29.88R
SHELDON *      CLOUDY    59  46  63 N20       29.87R
SIOUX CITY     CLEAR     68  40  35 W7        29.86S
SPENCER        LGT RAIN  56  50  80 N28G45    29.89R
STORM LAKE *   PTCLDY    68  37  32 W8        29.85F
$$

IAZ055>058-069>071-079>083-090>094-290300-
   SOUTHWEST IOWA

CITY           SKY/WX    TMP DP  RH WIND       PRES   REMARKS
ATLANTIC *     CLEAR     68  45  42 NW5       29.89S
AUDUBON *      CLEAR     64  45  48 CALM      29.89S
CLARINDA *     CLEAR     68  43  40 N6        29.92R
COUNCIL BLFS * CLEAR     70  43  37 W5        29.90S
CRESTON *      CLEAR     66  45  45 NW10      29.90R
HARLAN  *      CLEAR     64  46  52 W6        29.92S
LAMONI         CLEAR     68  46  45 NW12      29.87R
RED OAK *      CLEAR     66  45  45 NW3       29.90S
SHENANDOAH *   CLEAR     70  45  40 N5        29.90S
$$

IAZ047>049-059>061-072>074-084-290300-
   CENTRAL IOWA

CITY           SKY/WX    TMP DP  RH WIND       PRES   REMARKS
AMES           CLEAR     67  44  43 W9        29.83R
ANKENY *       CLEAR     70  41  35 W7G13     29.85R
BOONE *        CLEAR     70 -38   1 W10       29.83S
CHARITON *     CLEAR     66  46  48 NW8       29.85R
DES MOINES     PTCLDY    71  41  33 NW9       29.84R
GRINNELL*      PTCLDY    67  45  45 W8        29.83R
KNOXVILLE *    CLEAR     68  43  40 NW8       29.82R
MARSHALLTOWN   CLEAR     65  46  50 W9        29.80R
NEWTON *       PTCLDY    70  43  37 NW9       29.82R
PELLA *        CLEAR     70  38  31 NW8       29.84R
PERRY *          N/A     68  40  36 W9        29.85S
$$

IAZ004>006-015-016-023>025-035-036-290300-
   NORTH CENTRAL IOWA

CITY           SKY/WX    TMP DP  RH WIND       PRES   REMARKS
ALGONA *       CLEAR     68  37  32 NW7       29.82S
CLARION *      CLEAR     68  37  32 NW8G15    29.82R
ESTHERVILLE    CLOUDY    65  41  41 NW35G43   29.85R
FORT DODGE *   CLEAR     68  37  32 NW5       29.84S
MASON CITY     CLEAR     66  38  35 NW15      29.80S
FOREST CITY *    N/A     64  23  20 NW12      29.80S
WEBSTER CITY * CLEAR     68  37  32 NW12      29.81R
IOWA FALLS *     N/A     69  39  34 NW14      29.82R
$$

IAZ007>011-017>019-026>030-037>042-050>054-066-290300-
   NORTHEAST IOWA

CITY           SKY/WX    TMP DP  RH WIND       PRES   REMARKS
CEDAR RAPIDS   CLEAR     64  48  56 NW10      29.77S
CHARLES CITY * CLEAR     68  37  32 NW8       29.78R
CLINTON *      MOCLDY    65  54  67 W6        29.77F
DECORAH *      CLEAR     66  41  39 CALM      29.75R
DUBUQUE        CLEAR     64  47  53 W5        29.77S
MONTICELLO *   CLEAR     64  50  59 CALM      29.77R
OELWEIN *      PTCLDY    66  43  42 W8        29.78R
WATERLOO       CLEAR     67  40  37 W7        29.77R
$$

IAZ064-065-067-068-078-290300-
   EAST CENTRAL IOWA

CITY           SKY/WX    TMP DP  RH WIND       PRES   REMARKS
DAVENPORT      PTCLDY    69  51  52 SW8       29.78S
IOWA CITY      PTCLDY    69  53  56 W3        29.79R
MT. PLEASANT * CLOUDY    69  48  46 SW6       29.80S
MUSCATINE *    PTCLDY    68  52  56 SW5       29.78S
QUAD CITIES    CLEAR     70  50  49 SW3       29.77F
$$

IAZ062-063-075>077-085>089-095>099-290300-
   SOUTHEAST IOWA

CITY           SKY/WX    TMP DP  RH WIND       PRES   REMARKS
BURLINGTON     MOCLDY    72  51  47 W8        29.80F
FAIRFIELD *    PTCLDY    68  50  52 W7        29.81R
FORT MADISON * MOCLDY    70  50  49 SW5       29.82S
KEOKUK *       CLOUDY    68  52  56 SW5       29.81S
OSKALOOSA *      N/A     67  50  53 W8        29.82R
OTTUMWA        PTCLDY    66  49  54 W7        29.81S
WASHINGTON *   PTCLDY    68  52  56 SW8       29.80S
$$

ABBREVIATIONS USED IN REMARKS
   TC - TEMPERATURES IN CELSIUS
  WCI - WIND CHILL INDEX
   HX - HEAT INDEX
  VSB - VISIBILITY
$$





USA.gov is the U.S. government's official web portal to all federal, state and local government web resources and services.